Location: Brompton
(51.4000°N, 0.5333°E)
Time: 05:37:02
(UTC+00:00)

USA 215 - Pass Details

Date: 25 September 2021
Orbit: 1093 x 1114 km, 123.0° (Epoch: 14 October)

Event Time Altitude Azimuth Distance (km) Brightness Sun altitude
Exits shadow 20:55:55 24° 202° (SSW) 2,107 4.6 -28.0°
Maximum altitude 20:57:58 28° 231° (SW) 1,935 4.6 -28.3°
Drops below altitude 10° 21:03:26 10° 288° (WNW) 2,965 6.3 -28.9°
Sets 21:06:22 0° 300° (WNW) 3,929 7.3 -29.3°
